TimeEST,TemperatureF,Dew PointF,Humidity,Sea Level PressureIn,VisibilityMPH,Wind Direction,Wind SpeedMPH,Gust SpeedMPH,PrecipitationIn,Events,Conditions,WindDirDegrees,DateUTC
12:52 AM,46.0,36.0,68,30.22,10.0,North,4.6,-,N/A,,Mostly Cloudy,360,2012-11-20 05:52:00
1:52 AM,45.0,37.0,74,30.21,10.0,NNE,3.5,-,N/A,,Overcast,20,2012-11-20 06:52:00
2:52 AM,46.4,37.4,71,30.21,10.0,North,4.6,-,N/A,,Overcast,350,2012-11-20 07:52:00
3:52 AM,46.0,36.0,68,30.20,10.0,NNW,8.1,-,N/A,,Overcast,340,2012-11-20 08:52:00
4:52 AM,46.0,36.0,68,30.20,10.0,NNW,5.8,-,N/A,,Overcast,340,2012-11-20 09:52:00
5:52 AM,46.0,37.0,71,30.20,10.0,NNW,6.9,-,N/A,,Overcast,330,2012-11-20 10:52:00
6:52 AM,46.0,36.0,68,30.20,10.0,NNW,6.9,-,N/A,,Mostly Cloudy,340,2012-11-20 11:52:00
7:29 AM,44.6,37.4,76,30.20,10.0,NNW,3.5,-,N/A,,Mostly Cloudy,340,2012-11-20 12:29:00
7:52 AM,46.0,37.0,71,30.21,10.0,NNW,5.8,-,N/A,,Mostly Cloudy,340,2012-11-20 12:52:00
8:52 AM,48.9,39.0,69,30.20,10.0,Calm,Calm,-,N/A,,Overcast,0,2012-11-20 13:52:00
9:52 AM,51.1,41.0,68,30.19,10.0,North,3.5,-,N/A,,Overcast,360,2012-11-20 14:52:00
10:52 AM,54.0,42.1,64,30.19,10.0,NNE,3.5,-,N/A,,Overcast,30,2012-11-20 15:52:00
11:52 AM,54.0,42.1,64,30.16,10.0,Calm,Calm,-,N/A,,Overcast,0,2012-11-20 16:52:00
12:52 PM,55.9,41.0,57,30.14,10.0,Calm,Calm,-,N/A,,Overcast,0,2012-11-20 17:52:00
1:52 PM,55.9,41.0,57,30.12,10.0,NNW,4.6,-,N/A,,Overcast,330,2012-11-20 18:52:00
2:52 PM,57.0,41.0,55,30.11,10.0,North,4.6,-,N/A,,Overcast,10,2012-11-20 19:52:00
3:52 PM,54.0,41.0,62,30.10,10.0,NNE,3.5,-,N/A,,Overcast,20,2012-11-20 20:52:00
4:52 PM,51.1,43.0,74,30.11,10.0,NE,6.9,-,N/A,,Overcast,50,2012-11-20 21:52:00
5:52 PM,51.8,41.0,67,30.12,10.0,NNE,3.5,-,N/A,,Overcast,30,2012-11-20 22:52:00
6:52 PM,51.1,42.1,71,30.14,10.0,Calm,Calm,-,N/A,,Overcast,0,2012-11-20 23:52:00
7:52 PM,50.0,42.1,74,30.14,10.0,Calm,Calm,-,N/A,,Overcast,0,2012-11-21 00:52:00
8:52 PM,48.0,39.9,74,30.15,10.0,Calm,Calm,-,N/A,,Mostly Cloudy,0,2012-11-21 01:52:00
9:52 PM,48.0,39.9,74,30.16,10.0,Calm,Calm,-,N/A,,Scattered Clouds,0,2012-11-21 02:52:00
10:52 PM,45.0,39.9,82,30.16,10.0,NNW,4.6,-,N/A,,Scattered Clouds,340,2012-11-21 03:52:00
11:52 PM,46.0,41.0,83,30.16,10.0,Calm,Calm,-,N/A,,Scattered Clouds,0,2012-11-21 04:52:00